Total_Precipitation_Accumulation
1.53 1.71 1.69 1.54 1.51 1.61 1.52 1.50 1.64 1.71 1.70 1.74 1.74 1.70 1.67 1.75 1.92 2.07 2.06 2.20 2.31 2.36 2.37 2.30 2.20 2.21 2.26 2.16 2.23 2.33 2.50 2.67 2.46 2.16 2.01 1.93 1.88 1.79 1.67 1.42 1.25 1.17 1.05
1.80 2.02 2.00 1.71 1.55 1.46 1.32 1.33 1.54 1.74 1.77 1.74 1.71 1.66 1.60 1.66 1.89 2.04 2.16 2.39 2.49 2.41 2.32 2.27 2.16 2.26 2.34 2.26 2.26 2.21 2.26 2.51 2.46 2.30 2.22 2.23 2.13 1.95 1.86 1.66 1.34 1.20 1.18
1.61 1.85 1.79 1.54 1.38 1.34 1.34 1.40 1.56 1.69 1.69 1.63 1.64 1.69 1.79 1.90 2.06 2.19 2.30 2.44 2.41 2.30 2.31 2.23 2.10 2.12 2.10 2.16 2.21 2.17 2.12 2.17 2.31 2.26 2.19 2.28 2.22 2.01 1.90 1.72 1.57 1.63 1.47
1.17 1.43 1.43 1.30 1.24 1.27 1.34 1.37 1.36 1.39 1.45 1.50 1.68 1.90 2.06 2.17 2.26 2.32 2.31 2.26 2.24 2.14 2.06 1.98 1.96 2.02 2.05 2.05 1.99 1.97 1.98 2.06 2.13 2.14 2.15 2.26 2.28 2.21 2.06 1.92 1.88 1.86 1.71
1.06 1.27 1.25 1.22 1.21 1.18 1.19 1.26 1.31 1.38 1.46 1.66 1.83 1.93 1.95 1.99 2.06 2.18 2.18 2.12 2.07 1.97 1.85 1.68 1.68 1.92 1.99 1.94 1.79 1.86 1.93 1.97 1.99 2.07 2.13 2.24 2.29 2.39 2.19 1.95 1.91 1.98 1.89
0.96 1.18 1.17 1.15 1.12 1.07 1.10 1.19 1.36 1.46 1.62 1.79 1.83 1.82 1.76 1.52 1.59 1.70 1.75 1.77 1.77 1.72 1.60 1.53 1.56 1.65 1.64 1.60 1.56 1.56 1.61 1.69 1.86 2.09 2.20 2.21 2.18 2.26 2.33 2.23 2.16 2.12 2.08
0.95 1.12 1.20 1.17 1.18 1.15 1.13 1.29 1.48 1.64 1.79 1.90 1.88 1.83 1.74 1.66 1.53 1.38 1.36 1.40 1.52 1.53 1.55 1.60 1.41 1.30 1.42 1.42 1.46 1.40 1.34 1.39 1.49 1.72 1.92 1.97 2.06 2.07 2.32 2.35 2.38 2.46 2.44
0.99 1.20 1.28 1.22 1.25 1.34 1.36 1.45 1.67 1.89 2.03 2.04 1.98 1.89 1.87 1.82 1.71 1.47 1.37 1.32 1.47 1.52 1.50 1.53 1.52 1.45 1.44 1.52 1.54 1.45 1.32 1.28 1.26 1.23 1.42 1.68 1.90 2.12 2.19 2.25 2.35 2.42 2.42
1.02 1.19 1.29 1.34 1.43 1.47 1.52 1.69 1.91 2.10 2.12 2.07 2.10 2.05 2.01 2.04 1.86 1.51 1.34 1.34 1.52 1.55 1.54 1.51 1.49 1.45 1.49 1.36 1.32 1.32 1.31 1.27 1.11 1.12 1.20 1.39 1.56 1.63 1.84 2.06 2.25 2.22 2.15
1.34 1.41 1.59 1.77 1.93 2.01 2.06 2.13 2.17 2.23 2.15 2.11 2.11 2.13 2.08 2.08 1.98 1.48 1.25 1.27 1.47 1.52 1.59 1.57 1.47 1.34 1.31 1.18 1.15 1.29 1.27 1.25 1.25 1.18 1.09 1.11 1.18 1.30 1.37 1.43 1.70 1.90 1.82
1.62 1.70 1.90 2.19 2.36 2.35 2.36 2.30 2.24 2.25 2.25 2.22 2.15 2.13 2.10 2.04 1.96 1.54 1.34 1.37 1.52 1.62 1.62 1.59 1.53 1.39 1.19 1.12 1.06 1.10 1.15 1.13 1.19 1.21 1.17 1.12 1.19 1.29 1.24 1.20 1.33 1.52 1.58
1.84 2.00 2.18 2.41 2.37 2.29 2.46 2.40 2.37 2.43 2.40 2.30 2.23 2.15 2.16 2.11 1.94 1.63 1.39 1.44 1.59 1.71 1.78 1.73 1.64 1.42 1.18 1.07 0.98 0.95 0.91 0.85 0.90 1.03 1.06 1.02 1.05 1.16 1.23 1.20 1.23 1.27 1.32
2.04 2.14 2.20 2.29 2.47 2.62 2.68 2.60 2.52 2.50 2.44 2.27 2.16 2.04 1.97 2.03 2.03 1.61 1.35 1.41 1.49 1.54 1.71 1.74 1.48 1.24 1.09 0.94 0.90 0.88 0.78 0.73 0.84 0.91 0.91 0.90 0.89 0.99 1.19 1.31 1.33 1.32 1.27
1.94 1.92 1.99 2.14 2.27 2.35 2.58 2.64 2.55 2.40 2.35 2.30 2.19 2.05 1.97 2.00 2.00 1.67 1.35 1.33 1.40 1.39 1.47 1.54 1.40 1.22 1.08 0.96 0.90 0.86 0.80 0.81 0.90 0.92 0.93 0.96 0.97 1.03 1.11 1.19 1.28 1.32 1.28
1.88 1.82 1.82 1.83 1.91 1.97 2.06 2.17 2.18 2.19 2.02 1.92 1.82 1.76 1.76 1.80 1.77 1.52 1.34 1.33 1.44 1.50 1.45 1.48 1.48 1.35 1.21 1.10 1.07 1.10 1.10 1.06 0.98 0.97 1.00 1.02 0.99 0.99 1.04 1.10 1.17 1.21 1.14
1.72 1.65 1.66 1.66 1.70 1.75 1.78 1.73 1.58 1.52 1.37 1.23 1.19 1.15 1.17 1.23 1.32 1.17 1.05 1.14 1.29 1.35 1.28 1.31 1.42 1.41 1.33 1.25 1.19 1.19 1.17 1.11 1.04 1.04 1.03 1.01 0.98 0.95 0.97 1.02 1.06 1.08 1.05
1.71 1.56 1.45 1.39 1.44 1.47 1.55 1.67 1.73 1.52 1.30 1.12 1.00 0.87 0.85 0.95 1.04 1.04 0.99 1.02 1.10 1.12 1.09 1.16 1.26 1.30 1.26 1.23 1.17 1.14 1.09 1.10 1.11 1.06 1.03 1.03 1.01 0.96 0.94 0.97 0.99 1.05 1.03
1.61 1.49 1.38 1.35 1.39 1.42 1.48 1.58 1.70 1.69 1.44 1.11 0.96 0.85 0.73 0.72 0.74 0.78 0.79 0.83 0.91 0.95 0.96 1.03 1.08 1.13 1.13 1.14 1.13 1.12 1.08 1.09 1.08 1.06 1.02 1.01 1.01 0.97 0.97 0.98 0.95 0.97 1.02
1.46 1.38 1.31 1.33 1.34 1.31 1.35 1.40 1.45 1.48 1.38 1.21 1.01 0.83 0.68 0.58 0.59 0.63 0.62 0.68 0.84 0.89 0.88 0.92 0.93 0.95 0.98 1.02 1.02 1.06 1.06 1.02 1.02 1.05 1.02 0.98 1.01 1.02 1.02 1.01 1.00 1.01 1.02
1.32 1.20 1.10 1.15 1.18 1.17 1.21 1.23 1.24 1.28 1.25 1.18 1.06 0.81 0.61 0.56 0.64 0.70 0.70 0.79 0.88 0.88 0.83 0.87 0.82 0.82 0.87 0.93 0.98 1.03 1.03 1.04 1.07 1.04 1.01 1.00 0.99 1.00 0.97 0.98 1.01 1.03 1.03
1.24 1.05 0.83 0.78 0.87 0.95 1.04 1.11 1.12 1.12 1.14 1.11 0.95 0.69 0.50 0.45 0.58 0.73 0.83 0.86 0.86 0.85 0.79 0.74 0.70 0.72 0.78 0.84 0.88 0.91 0.96 1.03 1.02 1.01 1.05 1.02 0.98 0.98 0.96 0.97 0.96 0.98 1.00
1.11 0.99 0.84 0.74 0.76 0.81 0.90 1.00 1.03 0.99 0.98 0.95 0.83 0.63 0.47 0.42 0.54 0.67 0.74 0.73 0.72 0.74 0.71 0.67 0.65 0.69 0.72 0.75 0.80 0.86 0.91 0.94 0.95 0.98 1.00 1.00 0.99 0.97 0.97 1.01 1.01 1.00 1.01
1.03 0.95 0.83 0.75 0.76 0.76 0.81 0.92 0.93 0.88 0.85 0.79 0.71 0.62 0.53 0.53 0.59 0.66 0.68 0.67 0.67 0.65 0.63 0.62 0.60 0.59 0.65 0.68 0.70 0.76 0.83 0.83 0.84 0.87 0.93 0.98 0.98 0.99 1.03 1.04 1.00 0.96 0.97
0.94 0.91 0.78 0.72 0.74 0.78 0.78 0.80 0.78 0.73 0.70 0.65 0.60 0.58 0.57 0.60 0.62 0.61 0.63 0.63 0.62 0.57 0.54 0.56 0.57 0.57 0.60 0.65 0.65 0.64 0.67 0.69 0.70 0.74 0.79 0.85 0.88 0.95 1.02 1.05 1.01 0.97 1.03
0.89 0.91 0.81 0.71 0.70 0.73 0.73 0.73 0.69 0.67 0.62 0.56 0.53 0.53 0.54 0.56 0.57 0.60 0.60 0.57 0.53 0.51 0.47 0.49 0.55 0.55 0.51 0.52 0.53 0.53 0.57 0.55 0.54 0.61 0.70 0.79 0.81 0.88 1.00 1.04 1.04 1.04 1.11
0.79 0.82 0.77 0.68 0.64 0.65 0.66 0.72 0.72 0.66 0.59 0.53 0.51 0.52 0.49 0.46 0.46 0.48 0.48 0.46 0.45 0.46 0.46 0.47 0.50 0.50 0.49 0.46 0.45 0.45 0.43 0.41 0.42 0.52 0.56 0.64 0.75 0.82 0.90 0.96 0.95 1.03 1.11